Flag for Bosnia-Herzegovina

Past Weather in Sarajevo, Bosnia-Herzegovina — Yesterday and Last 2 Weeks

Now
55 °F

Passing clouds.


Feels Like: 55 °F
Forecast: 74 / 47 °F
Wind: 2 mph from North

Location: Sarajevo / Butmir

Current Time: Jul 13, 2020 at 4:25:55 am

Latest Report: Jul 13, 2020 at 3:00 am


Visibility: N/A

Pressure: 30.21 "Hg (28.37 "Hg at 526m altitude)

Humidity: 88%

Dew Point: 52 °F

Location of SarajevoLocation

Past Weather in Sarajevo — Graph

°F

Sarajevo Temperature Yesterday

Maximum temperature yesterday: 70 °F (at 12:00 am)
Minimum temperature yesterday: 59 °F (at 9:30 am)
Average temperature yesterday: 64 °F

High & Low Weather Summary for the Past Weeks

 TemperatureHumidityPressure
High93 °F (Jul 1, 5:00 pm)100% (Jun 28, 3:00 am)30.24 "Hg (Jun 28, 3:00 am)
Low46 °F (Jul 8, 4:00 am)22% (Jul 10, 5:00 pm)29.80 "Hg (Jul 6, 5:30 pm)
Average71 °F67%30.03 "Hg
* Reported Jun 28 3:00 am — Jul 13 3:00 am, Sarajevo. Weather by CustomWeather, © 2020

Note: Actual official high and low records may vary slightly from our data, if they occured in-between our weather recording intervals... More about our weather records

Sarajevo Weather History for the Previous 24 Hours

Scroll right to see more
 ConditionsComfort  
Time TempWeatherWind HumidityBarometerVisibility
3:00 am
Mon, Jul 13
55 °FPassing clouds.2 mph88%30.21 "HgN/A
2:00 am59 °FPassing clouds.No wind82%30.21 "HgN/A
1:00 am59 °FPassing clouds.2 mph77%30.21 "HgN/A
12:00 am61 °FPassing clouds.1 mph83%30.24 "HgN/A
11:00 pm
Sun, Jul 12
61 °FPassing clouds.1 mph72%30.24 "HgN/A
10:30 pm63 °FPassing clouds.1 mph68%30.24 "HgN/A
10:00 pm63 °FPassing clouds.3 mph68%30.24 "HgN/A
9:30 pm64 °FPassing clouds.3 mph60%30.24 "HgN/A
9:00 pm64 °FPassing clouds.5 mph60%30.21 "HgN/A
8:30 pm64 °FPassing clouds.5 mph60%30.21 "HgN/A
8:00 pm64 °FPartly sunny.5 mph60%30.21 "HgN/A
7:30 pm64 °FPartly sunny.6 mph60%30.21 "HgN/A
7:00 pm64 °FOvercast.7 mph64%30.21 "HgN/A
6:30 pm64 °FOvercast.5 mph64%30.21 "HgN/A
6:00 pm66 °FOvercast.6 mph60%30.21 "HgN/A
5:30 pm66 °FOvercast.3 mph60%30.21 "HgN/A
5:00 pm66 °FMore clouds than sun.5 mph68%30.21 "HgN/A
4:30 pm66 °FOvercast.3 mph68%30.18 "HgN/A
4:00 pm66 °FOvercast.1 mph64%30.18 "HgN/A
3:30 pm64 °FOvercast.5 mph68%30.21 "HgN/A
3:00 pm66 °FOvercast.2 mph64%30.21 "HgN/A
2:30 pm66 °FMostly cloudy.2 mph68%30.21 "HgN/A
2:00 pm64 °FOvercast.5 mph68%30.21 "HgN/A
1:30 pm64 °FOvercast.6 mph73%30.21 "HgN/A
1:00 pm63 °FOvercast.7 mph77%30.21 "HgN/A
12:30 pm63 °FOvercast.7 mph73%30.21 "HgN/A
12:00 pm63 °FOvercast.7 mph73%30.21 "HgN/A
11:30 am63 °FBroken clouds.7 mph77%30.21 "HgN/A
11:00 am61 °FMostly cloudy.7 mph83%30.21 "HgN/A
10:30 am61 °FMore clouds than sun.6 mph83%30.21 "Hg5 mi
10:00 am59 °FMore clouds than sun.8 mph88%30.21 "Hg5 mi
9:30 am59 °FLight rain. More clouds than sun.9 mph94%30.21 "Hg4 mi
9:00 am61 °FLight rain. Cloudy.9 mph94%30.21 "Hg5 mi
8:30 am61 °FOvercast.7 mph88%30.18 "HgN/A
8:00 am61 °FMore clouds than sun.8 mph88%30.18 "HgN/A
7:30 am61 °FPartly sunny.6 mph83%30.18 "HgN/A
6:30 am61 °FPartly sunny.6 mph83%30.15 "HgN/A
6:00 am61 °FPartly sunny.5 mph83%30.15 "HgN/A
5:00 am61 °FPartly cloudy.8 mph83%30.15 "HgN/A
4:00 am64 °FPartly cloudy.8 mph68%30.15 "HgN/A
Weather by CustomWeather, © 2020

See weather overview